Flag for Germany Weather past 2 weeks in Bensheim, Hesse, Germany

Now
75 °F

Passing clouds.


Feels Like: 78 °F
Forecast: 58 / 74 °F
Wind: 8 mph from Southwest

Location: Baden Wurttemberg - Neuostheim

Current Time: Jun 3, 2015 at 12:10:14 AM

Latest Report: Jun 2, 2015 at 8:50 PM


Visibility: N/A

Pressure: 30.01 "Hg

Humidity: 41%

Dew point: 50 °F

Location of BensheimLocation

Historic Weather in Bensheim — Graph

°F

Bensheim temperature yesterday

Maximum temperature yesterday: 79 °F (at 4:50 PM)
Minimum temperature yesterday: 54 °F (at 12:20 AM)
Average temperature yesterday: 67 °F

Past Weeks' High & Low Weather Summary

 TemperatureHumidityPressure
High79 °F (Jun 2, 4:50 PM)94% (Jun 1, 8:20 AM)30.33 "Hg (Jun 1, 8:20 AM)
Low41 °F (May 22, 5:20 AM)28% (May 22, 4:20 PM)29.71 "Hg (May 18, 8:20 PM)
Average61 °F56%30.04 "Hg
* Reported May 18 8:20 PM — Jun 2 8:50 PM, Bensheim, Weather by CustomWeather, © 2015

Note: Actual official high and low records may vary slightly from our data, if they occured in-between our weather recording intervals... More about our weather records

Advertising

Bensheim weather history for previous 24 hours

 ConditionsComfort  
Time TempWeatherWind HumidityBarometerVisibility
8:50 PM
Tue, Jun 2
75 °FPassing clouds.8 mph41%30.01 "HgN/A
8:20 PM77 °FPassing clouds.9 mph39%30.01 "HgN/A
7:50 PM77 °FPassing clouds.9 mph39%30.01 "HgN/A
7:20 PM79 °FPassing clouds.9 mph37%30.01 "HgN/A
6:50 PM77 °FPassing clouds.10 mph36%30.01 "HgN/A
6:20 PM79 °FPassing clouds.13 mph32%30.01 "HgN/A
5:50 PM79 °FPassing clouds.13 mph32%30.01 "HgN/A
5:20 PM77 °FPassing clouds.14 mph32%30.01 "HgN/A
4:50 PM79 °FPassing clouds.12 mph30%30.01 "HgN/A
4:20 PM77 °FPassing clouds.14 mph32%30.01 "HgN/A
3:50 PM77 °FPassing clouds.15 mph28%30.01 "HgN/A
3:20 PM77 °FPassing clouds.10 mph32%30.01 "HgN/A
2:50 PM75 °FPassing clouds.13 mph34%30.01 "HgN/A
2:20 PM73 °FPassing clouds.13 mph38%30.01 "HgN/A
1:50 PM72 °FPassing clouds.14 mph41%30.04 "HgN/A
1:20 PM72 °FPassing clouds.13 mph44%30.04 "HgN/A
12:50 PM70 °FPassing clouds.13 mph46%30.04 "HgN/A
12:20 PM70 °FPartly sunny.12 mph50%30.04 "HgN/A
11:50 AM66 °FPartly sunny.13 mph64%30.04 "HgN/A
11:20 AM66 °FPassing clouds.9 mph64%30.04 "HgN/A
10:50 AM64 °FPassing clouds.10 mph68%30.04 "HgN/A
10:20 AM64 °FPassing clouds.9 mph73%30.04 "HgN/A
9:50 AM63 °FPassing clouds.8 mph77%30.04 "HgN/A
9:20 AM61 °FScattered clouds.7 mph77%30.04 "HgN/A
8:50 AM59 °FScattered clouds.8 mph82%30.04 "HgN/A
8:20 AM59 °FScattered clouds.7 mph82%30.04 "HgN/A
7:50 AM57 °FPassing clouds.7 mph88%30.04 "HgN/A
7:20 AM55 °FPassing clouds.7 mph94%30.04 "HgN/A
6:50 AM55 °FSunny.8 mph88%30.04 "Hg10 mi
5:20 AM54 °FPassing clouds.5 mph88%30.04 "HgN/A
2:50 AM54 °FClear.5 mph94%30.04 "Hg10 mi
2:20 AM54 °FClear.3 mph94%30.04 "Hg10 mi
1:50 AM55 °FPassing clouds.5 mph94%30.04 "HgN/A
12:50 AM54 °FPassing clouds.5 mph94%30.07 "HgN/A
12:20 AM54 °FClear.3 mph94%30.07 "Hg10 mi
Weather by CustomWeather, © 2015

See weather overviewHow to use our weather pages